CDT,Max TemperatureF,Mean TemperatureF,Min TemperatureF,Max Dew PointF,MeanDew PointF,Min DewpointF,Max Humidity, Mean Humidity, Min Humidity, Max Sea Level PressureIn, Mean Sea Level PressureIn, Min Sea Level PressureIn, Max VisibilityMiles, Mean VisibilityMiles, Min VisibilityMiles, Max Wind SpeedMPH, Mean Wind SpeedMPH, Max Gust SpeedMPH,PrecipitationIn, CloudCover, Events, WindDirDegrees
2013-6-1,77,70,64,64,61,55,78,71,64,29.98,29.92,29.84,10,9,1,16,9,28,2.62,5,Thunderstorm,171
2013-6-2,77,72,66,61,57,55,83,63,47,29.99,29.95,29.93,10,10,0,10,4,,0.01,6,,324
2013-6-3,77,68,60,55,54,52,72,60,44,30.06,30.00,29.95,10,10,9,10,7,,0.00,3,,27
2013-6-4,80,70,59,57,54,48,72,56,42,30.06,30.01,29.95,10,10,10,10,5,,0.00,1,,71
2013-6-5,87,76,66,64,61,55,73,61,46,29.98,29.90,29.82,10,10,4,9,4,16,0.01,4,Thunderstorm,134
2013-6-6,80,73,66,63,60,57,78,64,48,29.85,29.82,29.78,10,9,4,10,6,16,0.00,5,Thunderstorm,329
2013-6-7,78,72,66,57,54,52,64,55,39,29.92,29.85,29.80,10,10,10,13,7,16,0.00,3,,335
2013-6-8,84,72,59,57,53,52,77,54,37,30.00,29.96,29.90,10,9,3,10,2,,0.00,2,,176
2013-6-9,84,75,66,64,59,52,78,65,48,30.00,29.92,29.84,10,10,3,30,6,50,0.77,6,Thunderstorm,160
2013-6-10,89,76,64,66,62,55,78,60,40,29.93,29.89,29.86,10,10,7,20,6,26,0.01,3,,234
2013-6-11,95,82,69,70,66,61,78,58,39,30.02,29.97,29.92,10,10,10,12,3,,0.00,0,,222
2013-6-12,95,85,75,72,67,64,69,55,44,30.05,29.97,29.89,10,10,3,16,9,24,0.00,0,,225
2013-6-13,87,79,71,68,64,59,65,56,43,29.98,29.92,29.89,10,10,2,20,12,26,0.00,2,,304
2013-6-14,84,74,64,59,56,54,73,54,37,30.08,30.02,29.96,10,10,8,15,3,20,0.00,0,,50
2013-6-15,89,76,62,63,58,54,77,55,35,30.10,30.04,29.97,10,10,5,8,2,,0.00,0,,154
2013-6-16,89,79,69,66,63,59,73,59,43,30.05,30.00,29.95,10,10,6,13,3,20,0.00,0,,183
2013-6-17,86,76,66,68,64,59,78,65,51,29.97,29.93,29.87,10,10,5,15,5,24,0.06,3,,183
2013-6-18,84,76,68,63,61,59,78,64,45,29.98,29.93,29.85,10,10,2,10,6,,0.01,4,,16
2013-6-19,89,78,68,64,62,57,78,58,43,30.06,30.01,29.97,10,10,9,13,3,18,0.00,1,Thunderstorm,147
2013-6-20,93,80,68,70,63,61,78,57,38,30.14,30.10,30.06,10,10,5,6,2,,0.00,0,,183
2013-6-21,91,81,71,66,64,61,73,55,41,30.18,30.13,30.08,10,10,3,9,4,,0.00,1,,161
2013-6-22,91,81,71,66,63,57,73,55,40,30.16,30.10,30.04,10,10,10,16,4,18,0.00,1,,156
2013-6-23,89,79,69,64,62,57,73,54,40,30.12,30.07,30.01,10,10,8,9,5,,0.00,1,,156
2013-6-24,93,83,73,68,65,63,69,56,38,30.14,30.07,30.02,10,10,2,13,4,16,0.00,0,,193
2013-6-25,91,83,75,70,66,63,69,58,46,30.07,30.01,29.93,10,10,4,12,6,17,0.00,1,Thunderstorm,191
2013-6-26,91,82,73,70,65,63,69,54,41,29.98,29.91,29.82,10,10,6,20,7,29,0.00,1,,206
2013-6-27,98,88,75,70,66,63,65,50,30,29.91,29.87,29.83,10,10,2,13,8,21,0.00,0,,282
2013-6-28,89,79,69,68,63,57,78,58,40,29.93,29.80,29.71,10,10,4,21,6,40,0.34,2,Thunderstorm,282
2013-6-29,86,77,68,61,57,52,69,51,37,29.78,29.73,29.68,10,10,5,18,6,23,0.00,2,,287
2013-6-30,77,70,64,59,56,55,73,63,53,29.85,29.79,29.72,10,10,7,12,4,20,0.14,5,Thunderstorm,319